RH
34 36 39 38 31 26 34 51 59 61 50 22 14 11 12 16 15 15 14 12 11 10 9 9 8 7 6
37 37 34 25 30 37 49 57 50 28 15 12 15 17 16 14 12 11 10 10 8 8 7 6 6 5 6
36 28 24 37 56 59 50 27 17 17 21 20 18 16 14 13 11 9 8 7 6 5 4 4 3 3 3
25 37 57 62 54 32 21 22 26 23 22 19 18 15 11 9 7 5 4 3 3 2 2 2 2 2 2
69 67 62 38 26 27 30 27 25 23 21 16 12 9 6 4 4 3 3 3 3 4 6 7 7 6 6
65 50 33 29 36 32 28 27 24 18 14 10 7 5 4 3 3 4 5 8 9 9 9 9 8 8 7
44 35 32 37 31 27 27 23 18 13 9 7 5 4 3 4 8 10 11 10 10 9 8 8 7 6 5
42 40 37 35 34 28 24 19 13 9 6 5 4 4 6 11 12 11 11 10 10 9 9 8 7 7 8
42 40 40 37 31 23 16 13 9 6 5 4 5 8 12 12 13 13 13 12 11 10 10 10 12 14 17
44 40 39 31 21 15 12 9 6 5 7 7 10 11 10 14 18 18 16 14 13 14 17 25 31 30 27
45 40 30 21 16 12 9 6 5 7 10 10 10 12 15 16 20 21 20 19 21 30 44 56 51 42 28
39 29 21 16 12 9 6 6 10 11 14 16 16 17 17 20 23 22 20 21 33 44 60 66 65 57 39
30 22 17 12 8 6 7 11 18 22 23 24 24 23 22 27 28 26 20 31 54 54 60 72 70 52 34
23 18 13 9 6 8 12 22 25 31 31 30 32 33 34 36 34 32 27 24 46 66 73 78 68 46 27
20 15 10 7 10 15 23 27 32 36 41 42 42 42 47 48 44 41 36 39 50 62 68 64 61 35 53
17 11 7 10 15 26 31 34 37 40 45 51 52 51 59 69 57 48 45 46 46 62 76 51 48 35 76
11 7 11 16 25 34 38 40 44 47 54 58 59 59 66 75 86 72 50 55 53 70 68 50 37 65 75
Wind_Speed
62 68 71 72 72 71 71 72 73 73 70 66 67 67 68 70 72 72 73 75 76 77 77 79 79 80 80
70 74 73 72 71 72 73 74 71 67 69 69 72 73 76 76 78 80 82 83 84 86 87 88 89 90 91
74 75 72 72 72 72 68 66 67 69 71 74 77 79 81 83 84 84 88 90 94 97 98 99 100 100 101
71 70 70 69 67 66 67 68 69 72 75 79 81 83 85 86 90 93 95 97 98 99 97 97 99 101 103
67 67 67 64 65 66 67 70 73 76 78 82 84 86 90 92 94 95 95 94 91 89 85 81 78 76 77
64 63 63 66 67 70 73 74 76 79 82 83 86 89 92 91 90 87 84 82 78 73 72 71 71 72 73
62 65 68 69 73 76 76 77 81 83 85 86 90 92 89 81 78 76 75 74 71 68 68 68 67 67 65
65 68 71 73 75 78 79 80 81 84 87 88 88 83 75 69 71 71 70 68 65 63 61 59 56 54 52
68 69 71 72 75 77 79 81 82 85 83 87 80 73 66 64 66 67 65 62 58 53 51 49 47 45 42
69 74 74 74 76 79 82 83 84 82 77 76 72 69 61 58 58 60 56 53 51 47 46 44 43 44 43
70 71 72 75 79 82 84 83 80 74 72 70 63 58 54 48 49 48 48 46 47 44 43 42 43 46 43
69 70 73 77 81 82 81 76 71 66 60 57 52 50 47 44 41 42 43 43 43 42 41 40 41 41 41
69 72 76 79 80 77 73 66 59 56 52 50 48 46 45 42 40 40 40 36 39 40 37 35 37 38 35
70 74 78 78 74 70 62 55 52 53 53 50 49 47 44 43 42 40 39 37 33 33 32 32 33 36 28
74 77 77 73 66 60 55 50 49 50 51 52 50 47 44 43 41 40 36 32 31 29 30 27 28 32 18
77 77 72 66 59 54 52 50 51 50 50 50 48 47 44 39 42 41 38 33 27 26 27 24 22 27 14
76 72 65 59 54 51 50 51 51 50 49 49 47 46 43 38 36 43 38 32 25 23 24 23 19 20 18
Wind_Direction
280 283 285 290 293 295 295 295 296 296 296 295 296 295 294 293 293 290 289 287 284 281 278 275 271 269 266
281 285 290 292 294 294 294 295 294 293 295 296 296 296 294 293 292 292 290 287 284 281 279 275 271 267 264
286 292 293 293 294 294 293 293 296 297 298 299 298 298 298 296 293 292 290 288 285 283 280 277 274 270 267
290 291 292 294 293 294 296 298 300 301 301 301 300 300 297 297 295 292 290 287 284 281 278 274 271 269 267
293 294 292 294 296 298 300 302 304 304 301 300 300 300 299 298 296 294 292 289 285 282 281 281 280 278 275
292 292 295 297 299 301 303 305 303 302 302 303 302 303 301 300 297 294 291 289 288 287 285 283 281 279 278
295 297 297 297 299 304 305 304 305 305 305 305 305 304 302 300 296 293 291 290 289 288 285 283 281 279 278
296 297 299 303 305 304 305 306 307 307 307 307 306 304 302 299 294 293 291 290 289 287 285 283 281 280 279
298 301 303 303 303 306 308 309 310 310 308 308 305 302 301 297 294 292 291 291 290 289 286 284 283 281 279
302 303 303 305 308 310 310 312 312 312 305 305 303 301 300 297 293 292 292 292 292 291 288 287 286 284 284
301 302 305 308 310 311 313 313 312 309 304 304 304 303 303 298 294 293 293 291 290 288 287 288 289 291 292
303 305 308 309 312 313 313 312 308 306 306 308 311 309 306 303 302 298 296 293 288 285 286 287 289 291 295
305 307 309 312 313 313 312 308 307 308 310 312 313 312 310 309 307 302 301 291 287 286 286 285 287 291 295
306 309 312 313 312 311 308 307 309 310 311 311 312 312 311 310 309 307 305 299 286 281 281 284 288 291 296
310 311 313 312 310 309 308 308 309 310 310 311 312 311 309 308 307 306 306 300 291 284 281 282 288 294 278
311 313 311 310 310 308 308 307 308 311 311 309 308 307 305 306 305 306 308 304 295 285 283 283 284 283 242
312 311 309 309 309 308 307 307 309 310 310 308 307 304 300 300 301 302 306 301 293 286 282 284 287 252 234